Hourly Data Report for March 14, 2015

All times are specified in Local Standard Time (LST). Add 1 hour to adjust for Daylight Saving Time where and when it is observed.

MIRAMICHI RCS
NEW BRUNSWICK

47°00'34.000" N
65°27'54.000" W
33.00 m
8100989
71744
ACQ

Download Data

Hourly Data (March 2015)
Hourly Data Report for March 14, 2015
TIME Temp Definition
°C
Dew Point Definition
°C
Rel Hum Definition
%
Wind Dir Definition
10's deg

Wind Spd Definition
km/h
Visibility Definition
km
Stn Press Definition
kPa
Hmdx Definition


Wind Chill Definition


Weather Definition


00:00 -16.0 -21.5 63 27 8   102.09   -22 LegendNANA
01:00 -16.5 -22.1 62 29 4   102.10   -20 LegendNANA
02:00 -16.8 -21.9 65 27 8   102.13   -22 LegendNANA
03:00 -16.5 -21.8 63 27 10   102.12   -23 LegendNANA
04:00 -16.9 -21.8 65 27 9   102.11   -23 LegendNANA
05:00 -18.2 -22.4 69 27 8   102.16   -24 LegendNANA
06:00 -20.0 -24.3 68 24 5   102.14   -24 LegendNANA
07:00 -19.2 -22.7 73 27 7   102.19   -25 LegendNANA
08:00 -18.2 -23.7 62 26 3   102.23   -21 LegendNANA
09:00 -13.9 -21.0 55 13 1   102.23   -15 LegendNANA
10:00 -9.1 -18.4 47 21 8   102.15   -13 LegendNANA
11:00 -6.8 -18.5 39 21 12   102.13   -12 LegendNANA
12:00 -4.8 -19.1 32 20 10   102.06   -9 LegendNANA
13:00 -2.9 -19.3 27 20 7   102.00   -6 LegendNANA
14:00 -1.2 -18.4 26 11 5   101.90   -3 LegendNANA
15:00 -1.1 -16.1 31 14 12   101.84   -5 LegendNANA
16:00 -0.9 -16.3 30 15 14   101.77   -5 LegendNANA
17:00 -0.8 -15.5 32 15 11   101.72   -5 LegendNANA
18:00 -4.9 -14.0 49 11 8   101.69   -8 LegendNANA
19:00 -6.9 -14.2 56 10 9   101.69   -11 LegendNANA
20:00 -7.9 -13.5 64 10 9   101.70   -12 LegendNANA
21:00 -6.6 -13.1 60 8 7   101.70   -10 LegendNANA
22:00 -6.5 -12.6 62 6 7   101.64   -10 LegendNANA
23:00 -6.6 -12.5 63 4 9   101.56   -11 LegendNANA

Notes on Data Quality.

Legend

  • E = Estimated
  • M = Missing
  • NA = Not Available
Date modified: